| time (UTC) | temp F | wind direction | speed knots | gust knots | rain 1hr in | rain 24hr in | rain mn in | humidity % | barometer mb |
| 20260506134738 | 58 | 250 | 0.9 | 4.3 | 0.00 | 0.00 | 0.08 | 90 | |
| 20260506133738 | 58 | 225 | 0.9 | 4.3 | 0.00 | 0.00 | 0.07 | 89 | |
| 20260506132738 | 59 | 254 | 2.6 | 6.1 | 0.00 | 0.00 | 0.06 | 88 | |
| 20260506131738 | 59 | 261 | 1.7 | 6.1 | 0.00 | 0.00 | 0.05 | 87 | |
| 20260506130738 | 59 | 246 | 0.9 | 6.1 | 0.00 | 0.00 | 0.03 | 87 | |
| 20260506125738 | 59 | 200 | 1.7 | 8.7 | 0.00 | 0.00 | 0.02 | 86 | |
| 20260506124738 | 59 | 188 | 2.6 | 7.8 | 0.00 | 0.00 | 0.01 | 86 | |
| 20260506123738 | 57 | 212 | 0.9 | 4.3 | 0.00 | 0.00 | 0.00 | 86 | |
| 20260506122738 | 57 | 186 | 0.0 | 0.0 | 0.00 | 0.00 | 0.00 | 85 | |
| 20260506121738 | 56 | 186 | 0.0 | 0.0 | 0.00 | 0.00 | 0.00 | 84 | |
| 20260506120738 | 56 | 186 | 0.0 | 0.0 | 0.00 | 0.00 | 0.00 | 82 | |
| 20260506115738 | 56 | 186 | 0.0 | 0.0 | 0.00 | 0.00 | 0.00 | 83 | |
| 20260506114737 | 56 | 186 | 0.0 | 0.0 | 0.00 | 0.00 | 0.00 | 83 | |
| 20260506113737 | 56 | 186 | 0.0 | 0.0 | 0.00 | 0.00 | 0.00 | 83 | |
| 20260506112738 | 55 | 186 | 0.0 | 0.0 | 0.00 | 0.00 | 0.00 | 83 | |
| 20260506111738 | 55 | 186 | 0.0 | 0.0 | 0.00 | 0.00 | 0.00 | 83 | |
| 20260506110738 | 55 | 186 | 0.0 | 0.0 | 0.00 | 0.00 | 0.00 | 83 | |
| 20260506105738 | 55 | 186 | 0.0 | 0.0 | 0.00 | 0.00 | 0.00 | 83 | |
| 20260506104737 | 55 | 186 | 0.0 | 0.9 | 0.00 | 0.00 | 0.00 | 83 | |
| 20260506103739 | 55 | 186 | 0.0 | 0.9 | 0.00 | 0.00 | 0.00 | 82 | |
| 20260506102737 | 55 | 186 | 0.9 | 1.7 | 0.00 | 0.00 | 0.00 | 82 | |
| 20260506101738 | 54 | 186 | 0.9 | 0.9 | 0.00 | 0.00 | 0.00 | 82 | |
| 20260506100738 | 54 | 179 | 0.0 | 0.0 | 0.00 | 0.00 | 0.00 | 82 | |
| 20260506095737 | 54 | 182 | 0.0 | 0.0 | 0.00 | 0.00 | 0.00 | 83 | |
| 20260506094737 | 54 | 182 | 0.0 | 0.0 | 0.00 | 0.00 | 0.00 | 83 | |
| 20260506093737 | 54 | 182 | 0.0 | 0.0 | 0.00 | 0.00 | 0.00 | 82 | |
| 20260506092737 | 54 | 182 | 0.0 | 0.0 | 0.00 | 0.00 | 0.00 | 82 | |
| 20260506091738 | 54 | 182 | 0.0 | 0.0 | 0.00 | 0.00 | 0.00 | 82 | |
| 20260506090739 | 54 | 182 | 0.0 | 0.0 | 0.00 | 0.00 | 0.00 | 82 | |
| 20260506084737 | 54 | 182 | 0.0 | 0.0 | 0.00 | 0.00 | 0.00 | 82 | |
| 20260506083737 | 54 | 182 | 0.0 | 0.0 | 0.00 | 0.00 | 0.00 | 81 | |
| 20260506082737 | 54 | 182 | 0.0 | 0.0 | 0.00 | 0.00 | 0.00 | 81 | |
| 20260506081737 | 54 | 182 | 0.0 | 0.0 | 0.00 | 0.00 | 0.00 | 81 | |
| 20260506080737 | 54 | 182 | 0.0 | 0.0 | 0.00 | 0.00 | 0.00 | 81 | |
| 20260506072737 | 54 | 183 | 0.0 | 0.0 | 0.00 | 0.00 | 0.00 | 82 | |
| 20260506071737 | 54 | 184 | 0.0 | 0.0 | 0.00 | 0.00 | 0.00 | 81 | |
| 20260506070737 | 54 | 184 | 0.0 | 0.0 | 0.00 | 0.00 | 0.00 | 81 | |
| 20260506061737 | 54 | 180 | 0.9 | 0.9 | 0.00 | 0.00 | 0.00 | 81 | |
| 20260506060737 | 54 | 180 | 0.0 | 1.7 | 0.00 | 0.00 | 0.00 | 80 | |
| 20260506050737 | 55 | 221 | 0.0 | 1.7 | 0.00 | 0.00 | 0.00 | 78 | |
| 20260506044738 | 56 | 221 | 0.0 | 0.9 | 0.00 | 0.00 | 0.00 | 76 | |
| 20260506043737 | 57 | 221 | 0.9 | 1.7 | 0.00 | 0.00 | 0.00 | 74 | |
| 20260506042738 | 57 | 221 | 0.0 | 1.7 | 0.00 | 0.00 | 0.00 | 73 | |
| 20260506041737 | 57 | 221 | 0.9 | 1.7 | 0.00 | 0.00 | 0.00 | 73 | |
| 20260506040738 | 58 | 221 | 0.9 | 1.7 | 0.00 | 0.00 | 0.00 | 72 | |
| 20260506035737 | 58 | 221 | 0.0 | 1.7 | 0.00 | 0.00 | 0.00 | 71 | |
| 20260506034737 | 58 | 221 | 0.0 | 1.7 | 0.00 | 0.00 | 0.00 | 70 | |
| 20260506033737 | 59 | 221 | 0.0 | 0.0 | 0.00 | 0.00 | 0.00 | 69 | |
| 20260506032737 | 60 | 221 | 0.0 | 0.0 | 0.00 | 0.00 | 0.00 | 68 | |
| 20260506031738 | 60 | 221 | 0.0 | 0.0 | 0.00 | 0.00 | 0.00 | 66 | |
| 20260506030738 | 61 | 221 | 0.0 | 1.7 | 0.00 | 0.00 | 0.00 | 65 | |
| 20260506025737 | 62 | 221 | 0.9 | 1.7 | 0.00 | 0.00 | 0.00 | 65 | |
| 20260506024738 | 63 | 221 | 0.0 | 0.0 | 0.00 | 0.00 | 0.00 | 63 | |
| 20260506023737 | 64 | 221 | 0.0 | 0.0 | 0.00 | 0.00 | 0.00 | 62 | |
| 20260506022737 | 65 | 221 | 0.0 | 0.0 | 0.00 | 0.00 | 0.00 | 60 | |
| 20260506021737 | 65 | 221 | 0.0 | 1.7 | 0.00 | 0.00 | 0.00 | 59 | |
| 20260506020737 | 66 | 221 | 0.0 | 1.7 | 0.00 | 0.00 | 0.00 | 59 | |
| 20260506015738 | 66 | 221 | 0.0 | 2.6 | 0.00 | 0.00 | 0.00 | 59 | |
| 20260506014737 | 66 | 225 | 0.9 | 1.7 | 0.00 | 0.00 | 0.00 | 58 | |
| 20260506013737 | 67 | 225 | 1.7 | 1.7 | 0.00 | 0.00 | 0.00 | 57 | |
| 20260506012737 | 68 | 225 | 0.0 | 1.7 | 0.00 | 0.00 | 0.00 | 56 | |
| 20260506011737 | 68 | 224 | 0.9 | 2.6 | 0.00 | 0.00 | 0.00 | 54 | |
| 20260506010737 | 68 | 236 | 1.7 | 1.7 | 0.00 | 0.00 | 0.00 | 54 | |
| 20260506005737 | 70 | 236 | 0.9 | 1.7 | 0.00 | 0.00 | 0.00 | 52 | |
| 20260506004737 | 71 | 236 | 0.0 | 3.5 | 0.00 | 0.00 | 0.00 | 50 | |
| 20260506003738 | 71 | 200 | 1.7 | 3.5 | 0.00 | 0.00 | 0.00 | 51 | |
| 20260506002737 | 71 | 210 | 0.9 | 4.3 | 0.00 | 0.00 | 0.00 | 50 | |
| 20260506001738 | 71 | 219 | 0.0 | 3.5 | 0.00 | 0.00 | 0.00 | 48 | |
| 20260506000737 | 71 | 217 | 1.7 | 4.3 | 0.00 | 0.00 | 0.00 | 49 | |
| 20260505235737 | 71 | 217 | 0.9 | 3.5 | 0.00 | 0.00 | 0.00 | 51 | |
| 20260505234737 | 72 | 237 | 1.7 | 6.1 | 0.00 | 0.00 | 0.00 | 50 | |
| 20260505233737 | 71 | 221 | 0.9 | 4.3 | 0.00 | 0.00 | 0.00 | 51 | |
| 20260505232737 | 71 | 209 | 0.9 | 4.3 | 0.00 | 0.00 | 0.00 | 52 | |
| 20260505231737 | 71 | 227 | 0.9 | 2.6 | 0.00 | 0.00 | 0.00 | 55 | |
| 20260505230737 | 72 | 231 | 2.6 | 2.6 | 0.00 | 0.00 | 0.00 | 54 | |
| 20260505225737 | 72 | 233 | 2.6 | 4.3 | 0.00 | 0.00 | 0.00 | 50 | |
| 20260505224738 | 73 | 232 | 2.6 | 6.1 | 0.00 | 0.00 | 0.00 | 49 | |
| 20260505223737 | 73 | 264 | 0.9 | 2.6 | 0.00 | 0.00 | 0.00 | 49 | |
| 20260505222737 | 73 | 257 | 1.7 | 7.8 | 0.00 | 0.00 | 0.00 | 48 | |
| 20260505221737 | 73 | 210 | 0.9 | 9.6 | 0.00 | 0.00 | 0.00 | 47 | |
| 20260505220737 | 73 | 238 | 1.7 | 7.0 | 0.00 | 0.00 | 0.00 | 47 | |
| 20260505215737 | 73 | 225 | 8.7 | 8.7 | 0.00 | 0.00 | 0.00 | 46 | |
| 20260505214737 | 74 | 242 | 2.6 | 11.3 | 0.00 | 0.00 | 0.00 | 44 | |
| 20260505213737 | 75 | 207 | 1.7 | 7.8 | 0.00 | 0.00 | 0.00 | 44 | |
| 20260505212737 | 75 | 234 | 4.3 | 12.2 | 0.00 | 0.00 | 0.00 | 42 | |
| 20260505211737 | 76 | 225 | 6.1 | 16.5 | 0.00 | 0.00 | 0.00 | 42 | |
| 20260505210737 | 77 | 249 | 7.0 | 23.5 | 0.00 | 0.00 | 0.00 | 40 | |
| 20260505205737 | 78 | 201 | 13.0 | 32.2 | 0.00 | 0.00 | 0.00 | 37 | |
| 20260505204737 | 77 | 238 | 7.0 | 15.6 | 0.00 | 0.00 | 0.00 | 36 | |
| 20260505203737 | 77 | 243 | 7.8 | 15.6 | 0.00 | 0.00 | 0.00 | 35 | |
| 20260505202738 | 77 | 267 | 9.6 | 19.1 | 0.00 | 0.00 | 0.00 | 34 | |
| 20260505201738 | 78 | 190 | 5.2 | 20.9 | 0.00 | 0.00 | 0.00 | 34 | |
| 20260505200737 | 78 | 247 | 20.0 | 20.0 | 0.00 | 0.00 | 0.00 | 33 | |
| 20260505195737 | 80 | 195 | 15.6 | 20.0 | 0.00 | 0.00 | 0.00 | 31 | |
| 20260505194737 | 81 | 257 | 6.1 | 21.7 | 0.00 | 0.00 | 0.00 | 31 | |
| 20260505193737 | 80 | 238 | 10.4 | 22.6 | 0.00 | 0.00 | 0.00 | 31 | |
| 20260505192738 | 79 | 231 | 13.0 | 22.6 | 0.00 | 0.00 | 0.00 | 32 | |
| 20260505191738 | 79 | 306 | 9.6 | 20.0 | 0.00 | 0.00 | 0.00 | 32 | |
| 20260505190737 | 79 | 290 | 3.5 | 17.4 | 0.00 | 0.00 | 0.00 | 33 | |
| 20260505185737 | 78 | 201 | 2.6 | 26.1 | 0.00 | 0.00 | 0.00 | 33 | |
| 20260505184737 | 80 | 279 | 10.4 | 24.3 | 0.00 | 0.00 | 0.00 | 32 | |
| 20260505183737 | 80 | 242 | 15.6 | 20.0 | 0.00 | 0.00 | 0.00 | 33 | |
| 20260505182737 | 79 | 273 | 10.4 | 21.7 | 0.00 | 0.00 | 0.00 | 33 | |
| 20260505181737 | 79 | 258 | 9.6 | 22.6 | 0.00 | 0.00 | 0.00 | 33 | |
| 20260505180737 | 79 | 247 | 7.0 | 21.7 | 0.00 | 0.00 | 0.00 | 37 | |
| 20260505175737 | 78 | 271 | 11.3 | 23.5 | 0.00 | 0.00 | 0.00 | 37 | |
| 20260505174737 | 79 | 244 | 8.7 | 21.7 | 0.00 | 0.00 | 0.00 | 34 | |
| 20260505173737 | 79 | 259 | 10.4 | 23.5 | 0.00 | 0.00 | 0.00 | 35 | |
| 20260505172737 | 78 | 106 | 3.5 | 15.6 | 0.00 | 0.00 | 0.00 | 39 | |
| 20260505171737 | 78 | 203 | 13.9 | 20.0 | 0.00 | 0.00 | 0.00 | 39 | |
| 20260505170738 | 78 | 201 | 9.6 | 14.8 | 0.00 | 0.00 | 0.00 | 40 | |
| 20260505165737 | 78 | 225 | 13.0 | 21.7 | 0.00 | 0.00 | 0.00 | 41 | |
| 20260505164737 | 78 | 240 | 17.4 | 17.4 | 0.00 | 0.00 | 0.00 | 40 | |
| 20260505163737 | 78 | 254 | 4.3 | 20.9 | 0.00 | 0.00 | 0.00 | 41 | |
| 20260505162738 | 77 | 194 | 8.7 | 17.4 | 0.00 | 0.00 | 0.00 | 43 | |
| 20260505161737 | 76 | 119 | 2.6 | 20.9 | 0.00 | 0.00 | 0.00 | 42 | |
| 20260505160737 | 77 | 226 | 3.5 | 17.4 | 0.00 | 0.00 | 0.00 | 41 | |
| 20260505152737 | 75 | 205 | 4.3 | 16.5 | 0.00 | 0.00 | 0.00 | 47 | |
| 20260505151737 | 74 | 242 | 7.0 | 24.3 | 0.00 | 0.00 | 0.00 | 47 | |
| 20260505150737 | 74 | 234 | 14.8 | 22.6 | 0.00 | 0.00 | 0.00 | 47 |